Other Public Products
Issued by NWS Charleston, SC

Current Version | Previous Version | Text Only | Print | Product List | Glossary Off
Versions: 1 2 3 4 5 6 7 8 9 10 11 12 13 14 15 16 17 18 19 20 21 22 23 24 25 26 27 28 29 30 31 32 33 34 35 36 37 38 39 40 41 42 43 44 45 46 47 48 49 50

000
FPUS82 KCHS 170527
OPUCHS

TEST...KCHS/KSAV Gateway Observations...TEST
National Weather Service Charleston SC
1200 AM EST FRI NOV 17 2017

NOTE: "fair" indicates few or no clouds below 12,000 feet with no
significant weather and/or obstructions to visibility.

SCZ050-WAZ558-NCZ071-TXZ119-213-PAZ071-DCZ001-FLZ074-172-MI076-
NYZ176-178-MAZ016-IL014-TNZ027-NJZ106-GAZ044-MD014-170600-

...Gateway Observations for Charleston International...

CITY           SKY/WX    TMP DP  RH WIND       PRES   REMARKS
Chas Airport   CLEAR     46  45  96 CALM      30.09S
Seattle        LGT RAIN  42  39  89 SW15G22   29.70R
Charlotte      PTCLDY    47  32  56 N8        30.12R
Dallas DFW     CLOUDY    71  65  81 S10       29.98S
Dallas Love    CLOUDY    70  65  84 S12       29.99S
Philladelphia  CLEAR     44  30  57 W10       30.01R
Wash National  CLOUDY    47  30  51 W9        30.12R
Baltimore      MOCLDY    44  29  55 W13       30.08R
Miami          PTCLDY    69  68  96 N6        30.01S
Detroit        CLOUDY    37  27  67 NW6       30.26R WCI  32
Newark         MOCLDY    44  34  67 W13       29.91S
Laguardia      PTCLDY    45  35  68 W12       29.90R
J F K          MOCLDY    44  37  76 W13       29.91S
Boston Logan   PTCLDY    43  36  76 W14G23    29.69S
Ft. Lauderdale PTCLDY    68  68 100 N6        30.00F
Chicago O`Hare CLOUDY    37  30  75 S6        30.20F WCI  32
Chicago Midway CLOUDY    38  31  76 S7        30.21F WCI  33
Houston Bush   PTCLDY    69  68  96 SE8       30.06F
Houston Hobby  PTCLDY    68  68 100 SE5       30.06S
Nashville      CLEAR     40  35  83 N5        30.21F WCI  37
Atlanta        PTCLDY    46  38  73 NW6       30.12S

$$

GAZ044-118-TXZ119-213-NCZ071-DCZ001-MDZ014-506-PAZ021-071-NJZ106-
NYZ176-178-MAZ106-OHZ011-021-055-MIZ076-KYZ091-ILZ014-INZ047-
MNZ060-ONZ431-170600-

...Gateway Observations for Savannah International...

CITY           SKY/WX    TMP DP  RH WIND       PRES   REMARKS
Savannah Arpt  CLEAR     47  46  97 W3        30.10S
Atlanta        PTCLDY    46  38  73 NW6       30.12S
Charlotte      PTCLDY    47  32  56 N8        30.12R
Dallas DFW     CLOUDY    71  65  81 S10       29.98S
Houston Bush   PTCLDY    69  68  96 SE8       30.06F
Wash National  CLOUDY    47  30  51 W9        30.12R
Wash Dulles    CLOUDY    43  31  62 W9        30.12S
Baltimore      MOCLDY    44  29  55 W13       30.08R
Philadelphia   CLEAR     44  30  57 W10       30.01R
Newark         MOCLDY    44  34  67 W13       29.91S
Laguardia      PTCLDY    45  35  68 W12       29.90R
J F K          MOCLDY    44  37  76 W13       29.91S
Boston         PTCLDY    43  36  76 W14G23    29.69S
Pittsburg      CLOUDY    38  31  76 W8        30.19R WCI  32
Akron          CLOUDY    38  29  70 W7        30.21S WCI  33
Cleveland      CLOUDY    41  31  67 N7        30.25S
Cincinnati     CLOUDY    37  30  75 E6        30.26S WCI  32
Columbus       CLOUDY    38  32  77 N3        30.25S
Detroit        CLOUDY    37  27  67 NW6       30.26R WCI  32
Chicago O`Hare CLOUDY    37  30  75 S6        30.20F WCI  32
Minneapolis    CLOUDY    34  28  79 SE12      29.97F WCI  25
Indianapolis   CLOUDY    35  29  78 E5        30.25F WCI  31
Toronto Canada CLOUDY    32  23  69 N20G29    30.15R WCI  20

$$




USA.gov is the U.S. government's official web portal to all federal, state and local government web resources and services.